Weather in Belogore

Russia / Amur Oblast     50°29′03″N   127°39′34″E
temp.,
°C
wind,
m/s
gust,
m/s
humid.,
%
clouds,
%
prec.,
mm/h
press.,
hPa
HPBL,
m
12 april, mon
mon1200:000ne71137100 0.0 1023775
03:00−2ne71161100 0.2 1023805
06:00−4ne61292100 1.6 1021826
09:00−3nne81252100 2.5 10191054
12:00−3nne81244100 1.3 10181179
15:00−2n81246100 2.6 10171323
18:00−3n71245100 0.1 10161339
21:00−4n6125072 0.1 1017355
13 april, tue
tue1300:00−6nnw511595 0.0 1017303
03:00−8nw512710 0.0 1015336
06:00−8wnw512735 0.0 1014394
09:00−4nnw8104855 0.0 10121554
12:00−2nnw7938100 0.0 10112544
15:000nnw71031100 0.0 10092787
18:00−1nnw61035100 0.0 10092063
21:00−4nw385497 0.0 1010170
14 april, wed
wed1400:00−6wnw411625 0.0 1009273
03:00−6wnw411735 0.0 1009272
06:00−7wnw410835 0.0 1009285
09:00−2nnw57506 0.0 10091344
12:00+1nw5629100 0.0 10092364
15:00+3nw4625100 0.0 10082528
18:00+3nnw2329100 0.0 1008482
21:00−1sse225088 0.0 101021
15 april, thu
thu1500:00−2w22565 0.0 101117
03:00−3wsw22694 0.0 101113
06:00−4s237152 0.0 101149
09:00+1sse3545100 0.0 1011406
12:00+5ese6733100 0.0 10081088
15:00+4ese71146100 0.3 10061294
18:00+3ese91569100 1.3 1003972
21:00+3e101967100 1.5 999936
16 april, fri
fri1600:00+4se101955100 0.1 997825
03:00+3se81586100 0.3 995486
06:00+2se81590100 0.4 996543
09:00+6sse81153100 0.4 9971583
12:00+8sse81040100 0.0 9982285
15:00+9sse6837100 0.0 9982430
18:00+8s463799 0.0 10001884
21:00+4se2251100 0.0 100221